Location: Harwich
(41.7160°N, 69.9939°W)
Time: 13:56:39
(UTC+01:00)

A-11 Canister half - Pass Details

Date: 04 December 2023
Orbit: 1526 x 1682 km, 47.3° (Epoch: 01 March)

Event Time Altitude Azimuth Distance (km) Brightness Sun altitude
Rises 03:47:51 0° 274° (W) 4,932 12.0 -61.0°
Reaches altitude 10° 03:51:06 10° 278° (W) 3,938 11.4 -61.5°
Enters shadow 03:52:13 14° 280° (W) 3,605 11.1 -61.7°
Maximum altitude 04:01:09 64° 359° (N) 1,804 - -63.0°
Drops below altitude 10° 04:10:56 10° 81° (E) 3,842 - -64.4°
Sets 04:14:04 0° 84° (E) 4,806 - -64.8°
